SL-6 R/B(2), 15439

Orbit data source: Space-Track

SL-6 R/B(2), 15439 is space debris originally from a launch on Fri, 14 Dec 1984 UTC launched from the Plesetsk Missile And Space Complex (PKMTR). Debris objects in space refer to the collection of defunct objects orbiting the Earth. Examples of debris include non-operational satellites, rocket bodies, and fragments generated from explosions, collisions, or faulty payload assembly.

Loading next visibility...
Identifier
15439, 1984-124H
Orbit
Molniya
Country
Flag of CISCIS
Related business
Manufacturer
NPO Energiya
Mission
Spacecraft
Bus & Motor
BLOK-L, Unknown motor
Mass
900 kg wet, 900 kg dry
Launch date (UTC)
1984-12-14 (41 years ago)
Launch vehicle
Unknown
Launch site
Plesetsk Missile And Space Complex (PKMTR)
Object type
Payload
Rocket body
Debris
Shape & HBR
Unknown
Radar Cross Section
Large (>1 m²)

Expand to show TLE details & history
Last TLE update: 5 days ago

TLE from 5 days ago
0 SL-6 R/B(2)
1 15439U 84124H   26125.92291186 -.00000980  00000-0 -55537-4 0  9993
2 15439  62.8927   1.4549 7470178 257.4486  17.5469  1.96385430253899
Epoch: 2026-05-05T22:08Z
TLE epoch observation values (Epoch: 2026-05-05T22:08:59.584Z)
Latitude
0.0001°
Longitude
165.49203°
Altitude
7,859.09 km
Speed
6.419 km/s
True Right ascension
00h 06m 07s
True Declination
0° 00' 00"
Sunlit
Object was in daylight at epoch
Visualization orbit readout
Latitude
Unknown
Longitude
Unknown
Altitude
Unknown
Speed
Unknown
Apparent Right ascension
Unknown
Apparent Declination
Unknown
Sunlit
N/A
Visualization observer readout
Local Sidereal Time
23:51:23
Azimuth
Unknown
Elevation
Unknown
Doppler factor
Unknown
Orbital elements
Apogee altitude
40,677.285 km
Perigee altitude
435.866 km
Semi-major axis
26,934.713 km
Eccentricity
0.74702
Inclination
62.8927°
RAAN
1.4549°
Arg. of periapsis
257.4486°
True anomaly
102.3793°
Mean anomaly
17.5469°
Eccentric anomaly
50.63924°
Mean motion
0.49099 °/min
Orbital period
733.21 mins
BSTAR
-0.000055537
Loading maneuver chart data...
Computing Atmospheric mass density...
Loading historical data...
Loading historical data...
Loading historical data...
Loading historical data...
Loading historical data...
Loading historical data...
Loading historical data...

Documentation

Showing up to 5 results
|